Tracking 25612 objects as of 19-May-2022
HD Live streaming from Space Station
objects crossing your sky now

FLOCK 3R 2

Track FLOCK 3R 2 now!
10-day predictions
FLOCK 3R 2 is classified as:


NORAD ID: 43748
Int'l Code: 2018-096AF
Perigee: 419.6 km
Apogee: 437.7 km
Inclination: 97.4 °
Period: 93.0 minutes
Semi major axis: 6799 km
RCS: Unknown
Launch date: November 29, 2018
Source: United States (US)
Launch site: SRIHARIKOTA (SRI)
aabbcc
Your satellite tracking list
Your tracking list is empty




NASA's NSSDC Master Catalog

Two Line Element Set (TLE):
1 43748U 18096AF  22138.23688989  .00103716  00000-0  19320-2 0  9994
2 43748  97.3642 225.0005 0013274 154.8935 205.2963 15.48370370193744
Source of the keplerian elements: AFSPC